Location: DARK SKY Beskydy - Park tmavé oblohy, www.darkskybeskydy.cz
(49.4926°N, 18.5016°E)
Time: 22:02:18
(UTC+02:00)

ACS3 Solar Sail - Pass Details

Date: 25 June 2024
Orbit: 992 x 1023 km, 97.4° (Epoch: 12 July)

Event Time Altitude Azimuth Distance (km) Brightness Sun altitude
Exits shadow 23:14:42 - 205° (SSW) 3,108 7.0 -14.2°
Reaches altitude 10° 23:15:46 10° 210° (SSW) 2,758 6.8 -14.3°
Maximum altitude 23:21:07 30° 269° (W) 1,712 6.3 -14.6°
Drops below altitude 10° 23:26:29 10° 329° (NNW) 2,766 8.5 -14.9°
Sets 23:29:20 0° 341° (NNW) 3,720 9.8 -15.0°
